RYR769K EBCI-LEZG

Flight info

Callsign RYR769K
Flight time N/A
Altitude 31000
Route CIV N872 LESDO DCT KOVIN DCT DUCRA/N0455F330 UM728 RESMI UN857 DISAK DCT DIRMO DCT GUERE DCT AGN/N0446F270 DCT ANETO N860 GRAUS
Aircraft B737/M-SDE2E3FGHIRWXY/LB1

Departure

Time 2026-04-29 12:10
Airport Brussels South Charleroi Airport (EBCI)

Arrival

Time N/A
Airport Zaragoza Airport (LEZG)
Time Latitude Longitude Altitude Speed Heading
2026-04-29 11:38 50.46945 4.47342 584 ft 0 kts 335°
2026-04-29 11:58 50.46930 4.47353 584 ft 4 kts 335°
2026-04-29 11:58 50.46909 4.47368 583 ft 4 kts 324°
2026-04-29 11:58 50.46897 4.47396 584 ft 5 kts 257°
2026-04-29 11:58 50.46907 4.47433 584 ft 4 kts 245°
2026-04-29 11:59 50.46908 4.47438 584 ft 3 kts 245°
2026-04-29 12:01 50.46908 4.47437 584 ft 0 kts 245°
2026-04-29 12:02 50.46903 4.47420 584 ft 3 kts 245°
2026-04-29 12:02 50.46890 4.47375 584 ft 6 kts 245°
2026-04-29 12:02 50.46864 4.47289 584 ft 13 kts 245°
2026-04-29 12:02 50.46818 4.47126 585 ft 18 kts 245°
2026-04-29 12:03 50.46766 4.46948 584 ft 18 kts 245°
2026-04-29 12:03 50.46715 4.46775 587 ft 17 kts 246°
2026-04-29 12:03 50.46667 4.46607 587 ft 17 kts 245°
2026-04-29 12:03 50.46594 4.46544 590 ft 14 kts 157°
2026-04-29 12:04 50.46528 4.46528 589 ft 11 kts 232°
2026-04-29 12:04 50.46496 4.46423 588 ft 11 kts 245°
2026-04-29 12:04 50.46465 4.46316 589 ft 11 kts 246°
2026-04-29 12:04 50.46432 4.46203 590 ft 12 kts 245°
2026-04-29 12:05 50.46395 4.46075 591 ft 13 kts 245°
2026-04-29 12:05 50.46355 4.45939 596 ft 16 kts 245°
2026-04-29 12:05 50.46299 4.45746 596 ft 24 kts 245°
2026-04-29 12:05 50.46222 4.45479 598 ft 30 kts 245°
2026-04-29 12:06 50.46133 4.45174 597 ft 31 kts 245°
2026-04-29 12:06 50.46046 4.44875 596 ft 29 kts 246°
2026-04-29 12:06 50.45964 4.44594 598 ft 27 kts 245°
2026-04-29 12:06 50.45869 4.44348 598 ft 26 kts 232°
2026-04-29 12:07 50.45782 4.44174 596 ft 11 kts 232°
2026-04-29 12:07 50.45766 4.44141 595 ft 0 kts 231°
2026-04-29 12:08 50.45753 4.44116 594 ft 6 kts 231°
2026-04-29 12:08 50.45719 4.44048 593 ft 10 kts 231°
2026-04-29 12:08 50.45656 4.43987 593 ft 12 kts 166°
2026-04-29 12:08 50.45628 4.44058 593 ft 8 kts 71°
2026-04-29 12:09 50.45635 4.44084 593 ft 1 kts 66°
2026-04-29 12:09 50.45650 4.44137 593 ft 25 kts 65°
2026-04-29 12:09 50.45832 4.44763 598 ft 99 kts 65°
2026-04-29 12:09 50.46189 4.46036 741 ft 144 kts 68°
2026-04-29 12:10 50.46561 4.47468 1606 ft 140 kts 63°
2026-04-29 12:10 50.47077 4.48742 2563 ft 140 kts 50°
2026-04-29 12:10 50.48020 4.49397 3317 ft 162 kts 18°
2026-04-29 12:10 50.48920 4.50230 3900 ft 150 kts 70°
2026-04-29 12:11 50.49458 4.51778 4365 ft 179 kts 62°
2026-04-29 12:11 50.50214 4.53540 4675 ft 211 kts 60°
2026-04-29 12:11 50.51131 4.55542 5001 ft 241 kts 56°
2026-04-29 12:11 50.52172 4.57733 5727 ft 257 kts 56°
2026-04-29 12:12 50.53376 4.59820 6845 ft 257 kts 39°
2026-04-29 12:12 50.55026 4.60992 7870 ft 269 kts 18°
2026-04-29 12:12 50.56939 4.61078 8744 ft 282 kts 353°
2026-04-29 12:12 50.58783 4.59931 9738 ft 292 kts 328°
2026-04-29 12:13 50.60207 4.57589 10569 ft 308 kts 303°
2026-04-29 12:13 50.61007 4.54322 10914 ft 335 kts 283°
2026-04-29 12:13 50.61207 4.50517 11118 ft 363 kts 268°
2026-04-29 12:13 50.61006 4.46433 11435 ft 384 kts 264°
2026-04-29 12:14 50.60646 4.42210 12050 ft 393 kts 262°
2026-04-29 12:14 50.60259 4.37907 12779 ft 398 kts 263°
2026-04-29 12:14 50.59925 4.33590 13774 ft 398 kts 264°
2026-04-29 12:14 50.59648 4.29257 14623 ft 400 kts 265°
2026-04-29 12:15 50.59409 4.24855 15316 ft 406 kts 266°
2026-04-29 12:15 50.59190 4.20379 16075 ft 411 kts 267°
2026-04-29 12:15 50.58979 4.15867 16857 ft 416 kts 267°
2026-04-29 12:15 50.58765 4.11289 17532 ft 422 kts 267°
2026-04-29 12:16 50.58548 4.06678 18314 ft 425 kts 267°
2026-04-29 12:16 50.58325 4.02005 18927 ft 431 kts 267°
2026-04-29 12:16 50.58095 3.97277 19581 ft 434 kts 267°
2026-04-29 12:16 50.57858 3.92515 20214 ft 438 kts 266°
2026-04-29 12:17 50.57181 3.87825 20747 ft 446 kts 246°
2026-04-29 12:17 50.55540 3.83711 21417 ft 447 kts 227°
2026-04-29 12:17 50.53230 3.80472 22033 ft 446 kts 210°
2026-04-29 12:17 50.50457 3.78307 22660 ft 446 kts 200°
2026-04-29 12:18 50.47584 3.76418 23190 ft 450 kts 199°
2026-04-29 12:18 50.44672 3.74541 23748 ft 453 kts 199°
2026-04-29 12:18 50.41758 3.72630 24264 ft 456 kts 200°
2026-04-29 12:18 50.38872 3.70691 24719 ft 459 kts 200°
2026-04-29 12:19 50.35898 3.68669 25183 ft 461 kts 200°
2026-04-29 12:19 50.32991 3.66687 25770 ft 461 kts 200°
2026-04-29 12:19 50.30045 3.64689 26238 ft 463 kts 200°
2026-04-29 12:19 50.27039 3.62658 26611 ft 467 kts 200°
2026-04-29 12:20 50.24075 3.60658 26998 ft 471 kts 200°
2026-04-29 12:20 50.21060 3.58625 27404 ft 473 kts 200°
2026-04-29 12:20 50.18028 3.56584 27813 ft 475 kts 199°
2026-04-29 12:20 50.14980 3.54539 28191 ft 478 kts 199°
2026-04-29 12:21 50.11920 3.52492 28597 ft 480 kts 200°
2026-04-29 12:21 50.08846 3.50438 29018 ft 481 kts 200°
2026-04-29 12:21 50.05775 3.48386 29475 ft 481 kts 200°
2026-04-29 12:21 50.02705 3.46338 30026 ft 479 kts 200°
2026-04-29 12:22 49.99643 3.44296 30553 ft 477 kts 200°
2026-04-29 12:22 49.96600 3.42270 30996 ft 476 kts 201°
2026-04-29 12:22 49.93554 3.40247 31347 ft 477 kts 201°
2026-04-29 12:22 49.90502 3.38224 31680 ft 478 kts 203°
2026-04-29 12:23 49.87436 3.36191 31967 ft 480 kts 204°
2026-04-29 12:23 49.84370 3.34159 32349 ft 479 kts 204°
2026-04-29 12:23 49.81321 3.32146 32930 ft 474 kts 204°
2026-04-29 12:23 49.78294 3.30147 33376 ft 472 kts 204°
2026-04-29 12:24 49.75265 3.28144 33578 ft 476 kts 204°
2026-04-29 12:24 49.72229 3.26136 34048 ft 472 kts 204°
2026-04-29 12:24 49.69218 3.24147 34447 ft 470 kts 205°
2026-04-29 12:24 49.66210 3.22163 34753 ft 469 kts 205°
2026-04-29 12:25 49.63214 3.20190 35061 ft 468 kts 205°
2026-04-29 12:25 49.61234 3.18887 35279 ft 467 kts 205°
2026-04-29 12:25 49.55267 3.14968 35846 ft 465 kts 206°
2026-04-29 12:26 49.52295 3.13019 36189 ft 463 kts 205°
2026-04-29 12:26 49.49338 3.11067 36467 ft 462 kts 207°
2026-04-29 12:26 49.46540 3.08700 36795 ft 456 kts 215°
2026-04-29 12:26 49.43910 3.06035 37259 ft 450 kts 215°
2026-04-29 12:27 49.41321 3.03355 37589 ft 448 kts 216°
2026-04-29 12:27 49.38738 3.00676 37803 ft 448 kts 217°
2026-04-29 12:27 49.36151 2.98008 38019 ft 448 kts 216°
2026-04-29 12:27 49.33567 2.95367 38369 ft 445 kts 217°
2026-04-29 12:28 49.30997 2.92755 38658 ft 443 kts 216°
2026-04-29 12:28 49.28427 2.90154 38835 ft 443 kts 216°
2026-04-29 12:28 49.25850 2.87557 39026 ft 442 kts 216°
2026-04-29 12:29 49.20725 2.82405 39125 ft 441 kts 216°
2026-04-29 12:29 49.15619 2.77282 39118 ft 442 kts 216°
2026-04-29 12:30 49.10459 2.72117 39113 ft 443 kts 215°
2026-04-29 12:30 49.05299 2.66963 39109 ft 444 kts 216°
2026-04-29 12:31 49.00141 2.61822 39106 ft 441 kts 215°
2026-04-29 12:31 48.95019 2.56733 39093 ft 438 kts 215°
2026-04-29 12:32 48.89922 2.51680 39102 ft 435 kts 215°
2026-04-29 12:32 48.84890 2.46698 39097 ft 434 kts 215°
2026-04-29 12:33 48.79809 2.41681 39076 ft 432 kts 215°
2026-04-29 12:33 48.74807 2.36752 39077 ft 431 kts 215°
2026-04-29 12:34 48.69782 2.31812 39077 ft 431 kts 215°
2026-04-29 12:34 48.64746 2.26871 39076 ft 431 kts 215°
2026-04-29 12:35 48.59705 2.21943 39077 ft 431 kts 214°
2026-04-29 12:35 48.54220 2.18225 39070 ft 436 kts 197°
2026-04-29 12:36 48.48260 2.16313 39058 ft 438 kts 194°
2026-04-29 12:36 48.42289 2.14482 39060 ft 437 kts 194°
2026-04-29 12:37 48.36393 2.12599 39045 ft 435 kts 194°
2026-04-29 12:37 48.30477 2.10742 39034 ft 434 kts 191°
2026-04-29 12:38 48.24435 2.10675 39033 ft 438 kts 175°
2026-04-29 12:38 48.18414 2.12090 39033 ft 437 kts 174°
2026-04-29 12:39 48.12412 2.13345 39013 ft 434 kts 179°
2026-04-29 12:39 48.06398 2.13782 39018 ft 432 kts 182°
2026-04-29 12:40 48.00383 2.14027 39024 ft 432 kts 181°
2026-04-29 12:40 47.94367 2.14317 39029 ft 433 kts 181°
2026-04-29 12:41 47.88344 2.14652 39021 ft 434 kts 181°
2026-04-29 12:41 47.82297 2.15003 39023 ft 434 kts 181°
2026-04-29 12:42 47.76251 2.15355 39008 ft 434 kts 181°
2026-04-29 12:42 47.70224 2.15704 38997 ft 433 kts 181°
2026-04-29 12:43 47.64212 2.16051 38992 ft 432 kts 181°
2026-04-29 12:43 47.58204 2.16396 38990 ft 431 kts 181°
2026-04-29 12:44 47.52211 2.16740 38991 ft 430 kts 181°
2026-04-29 12:44 47.46239 2.17081 38996 ft 430 kts 181°
2026-04-29 12:45 47.40261 2.17422 38994 ft 429 kts 181°
2026-04-29 12:45 47.34302 2.17762 38994 ft 428 kts 180°
2026-04-29 12:46 47.28350 2.18100 38992 ft 428 kts 180°
2026-04-29 12:46 47.22406 2.18437 38992 ft 427 kts 180°
2026-04-29 12:47 47.16458 2.18773 38985 ft 427 kts 180°
2026-04-29 12:47 47.10524 2.19108 38992 ft 427 kts 180°
2026-04-29 12:48 47.04607 2.18876 38995 ft 424 kts 187°
2026-04-29 12:48 46.98769 2.18124 38988 ft 424 kts 187°
2026-04-29 12:49 46.92890 2.17367 38982 ft 424 kts 187°
2026-04-29 12:49 46.87002 2.16660 38988 ft 424 kts 186°
2026-04-29 12:50 46.81111 2.15977 38984 ft 425 kts 186°
2026-04-29 12:50 46.75219 2.15300 38984 ft 425 kts 186°
2026-04-29 12:51 46.69319 2.14623 38974 ft 425 kts 186°
2026-04-29 12:51 46.63422 2.13948 38979 ft 425 kts 186°
2026-04-29 12:52 46.57517 2.13272 38973 ft 426 kts 186°
2026-04-29 12:52 46.51609 2.12597 38965 ft 426 kts 186°
2026-04-29 12:53 46.45694 2.11923 38969 ft 427 kts 186°
2026-04-29 12:53 46.39770 2.11250 38966 ft 427 kts 186°
2026-04-29 12:54 46.33836 2.10577 38961 ft 428 kts 186°
2026-04-29 12:54 46.27890 2.09904 38959 ft 428 kts 186°
2026-04-29 12:55 46.21950 2.09233 38959 ft 428 kts 186°
2026-04-29 12:55 46.16155 2.07479 38953 ft 426 kts 201°
2026-04-29 12:56 46.10665 2.04416 38960 ft 426 kts 202°
2026-04-29 12:56 46.05136 2.01314 38952 ft 427 kts 201°
2026-04-29 12:57 45.99595 1.98247 38957 ft 427 kts 201°
2026-04-29 12:57 45.94039 1.95201 38960 ft 427 kts 201°
2026-04-29 12:58 45.88486 1.92171 38952 ft 427 kts 201°
2026-04-29 12:58 45.82925 1.89144 38954 ft 427 kts 201°
2026-04-29 12:59 45.77368 1.86125 38955 ft 427 kts 201°
2026-04-29 12:59 45.71809 1.83111 38960 ft 427 kts 201°
2026-04-29 13:00 45.66251 1.80104 38959 ft 427 kts 201°
2026-04-29 13:00 45.60691 1.77102 38962 ft 427 kts 201°
2026-04-29 13:01 45.55170 1.74127 38956 ft 427 kts 201°
2026-04-29 13:01 45.49614 1.71140 38959 ft 427 kts 200°
2026-04-29 13:02 45.44063 1.68161 38955 ft 426 kts 201°
2026-04-29 13:02 45.38505 1.65186 38954 ft 426 kts 200°
2026-04-29 13:03 45.32947 1.62217 38948 ft 427 kts 200°
2026-04-29 13:03 45.27390 1.59254 38941 ft 427 kts 200°
2026-04-29 13:04 45.21826 1.56294 38939 ft 427 kts 200°
2026-04-29 13:04 45.16266 1.53341 38947 ft 427 kts 200°
2026-04-29 13:05 45.10701 1.50393 38938 ft 427 kts 200°
2026-04-29 13:05 45.05140 1.47453 38936 ft 426 kts 200°
2026-04-29 13:06 44.99581 1.44520 38933 ft 427 kts 200°
2026-04-29 13:06 44.94047 1.41606 38921 ft 427 kts 200°
2026-04-29 13:07 44.88479 1.38680 38912 ft 427 kts 200°
2026-04-29 13:07 44.82915 1.35763 38915 ft 426 kts 200°
2026-04-29 13:08 44.77360 1.32856 38916 ft 425 kts 200°
2026-04-29 13:08 44.71815 1.29961 38934 ft 426 kts 200°
2026-04-29 13:09 44.66240 1.27055 38932 ft 428 kts 200°
2026-04-29 13:09 44.60632 1.24139 38913 ft 431 kts 200°
2026-04-29 13:10 44.55029 1.21231 38902 ft 428 kts 200°
2026-04-29 13:10 44.49468 1.18351 38911 ft 426 kts 200°
2026-04-29 13:11 44.43916 1.15481 38926 ft 425 kts 200°
2026-04-29 13:11 44.38371 1.12621 38915 ft 425 kts 200°
2026-04-29 13:12 44.32861 1.09784 38921 ft 424 kts 200°
2026-04-29 13:12 44.27292 1.06923 38907 ft 424 kts 200°
2026-04-29 13:13 44.21790 1.04102 38905 ft 423 kts 199°
2026-04-29 13:13 44.16256 1.01270 38911 ft 424 kts 199°
2026-04-29 13:14 44.11616 0.98900 38914 ft 424 kts 199°
2026-04-29 13:14 44.06057 0.96066 38930 ft 427 kts 199°
2026-04-29 13:15 44.00465 0.93220 38904 ft 428 kts 199°
2026-04-29 13:15 43.94902 0.90393 38908 ft 428 kts 199°
2026-04-29 13:16 43.89300 0.87571 38906 ft 428 kts 198°
2026-04-29 13:16 43.83491 0.85757 38937 ft 430 kts 191°
2026-04-29 13:17 43.77588 0.84240 38903 ft 431 kts 191°
2026-04-29 13:17 43.71714 0.82711 38896 ft 428 kts 191°
2026-04-29 13:18 43.65875 0.81164 38899 ft 426 kts 191°
2026-04-29 13:18 43.60064 0.79615 38905 ft 425 kts 191°
2026-04-29 13:19 43.54272 0.78073 38904 ft 424 kts 191°
2026-04-29 13:19 43.48485 0.76535 38901 ft 423 kts 191°
2026-04-29 13:20 43.42705 0.75003 38908 ft 423 kts 191°
2026-04-29 13:20 43.36921 0.73474 38903 ft 423 kts 191°
2026-04-29 13:21 43.31137 0.71946 38901 ft 424 kts 191°
2026-04-29 13:21 43.25346 0.70420 38902 ft 424 kts 191°
2026-04-29 13:21 43.22497 0.69385 38886 ft 424 kts 204°
2026-04-29 13:22 43.19895 0.67498 38910 ft 423 kts 213°
2026-04-29 13:22 43.15526 0.62126 38914 ft 424 kts 226°
2026-04-29 13:23 43.11618 0.56059 38913 ft 425 kts 227°
2026-04-29 13:23 43.07713 0.49996 38919 ft 425 kts 227°
2026-04-29 13:24 43.03811 0.44005 38922 ft 425 kts 226°
2026-04-29 13:24 42.99873 0.37999 38947 ft 424 kts 226°
2026-04-29 13:25 42.95933 0.32014 38953 ft 423 kts 226°
2026-04-29 13:25 42.90017 0.23048 38952 ft 424 kts 226°
2026-04-29 13:26 42.86060 0.17066 38966 ft 425 kts 226°
2026-04-29 13:26 42.82087 0.11072 38973 ft 427 kts 226°
2026-04-29 13:27 42.78098 0.05066 38955 ft 428 kts 225°
2026-04-29 13:27 42.74099 -0.00943 38681 ft 432 kts 226°
2026-04-29 13:28 42.72080 -0.03972 38016 ft 431 kts 225°
2026-04-29 13:28 42.70073 -0.06981 37386 ft 427 kts 225°
2026-04-29 13:28 42.68084 -0.09961 36790 ft 424 kts 225°
2026-04-29 13:28 42.66103 -0.12923 36113 ft 422 kts 225°
2026-04-29 13:29 42.64156 -0.15831 35365 ft 423 kts 225°
2026-04-29 13:29 42.62171 -0.18792 34583 ft 425 kts 224°
2026-04-29 13:29 42.60172 -0.21772 33735 ft 428 kts 224°
2026-04-29 13:29 42.58163 -0.24764 32806 ft 431 kts 224°
2026-04-29 13:30 42.56137 -0.27778 31872 ft 433 kts 225°
2026-04-29 13:30 42.54103 -0.30799 30929 ft 435 kts 225°
2026-04-29 13:30 42.52053 -0.33843 29929 ft 438 kts 225°
2026-04-29 13:30 42.49987 -0.36907 28712 ft 442 kts 225°
2026-04-29 13:31 42.47907 -0.39989 27720 ft 442 kts 225°
2026-04-29 13:31 42.45848 -0.43040 26902 ft 437 kts 225°
2026-04-29 13:31 42.43804 -0.46066 26087 ft 433 kts 225°
2026-04-29 13:31 42.41774 -0.49066 25288 ft 430 kts 225°
2026-04-29 13:32 42.39761 -0.52036 24510 ft 428 kts 225°
2026-04-29 13:32 42.37747 -0.55004 23695 ft 428 kts 225°
2026-04-29 13:32 42.35737 -0.57964 22747 ft 427 kts 225°
2026-04-29 13:32 42.33731 -0.60915 21891 ft 424 kts 226°
2026-04-29 13:33 42.31745 -0.63833 21036 ft 421 kts 226°
2026-04-29 13:33 42.29776 -0.66724 20233 ft 416 kts 226°
2026-04-29 13:33 42.27820 -0.69594 19435 ft 412 kts 226°
2026-04-29 13:33 42.25885 -0.72429 18640 ft 409 kts 226°
2026-04-29 13:34 42.23960 -0.75247 17747 ft 407 kts 226°
2026-04-29 13:34 42.22047 -0.78045 16859 ft 404 kts 226°
2026-04-29 13:34 42.20153 -0.80812 16015 ft 397 kts 226°
2026-04-29 13:34 42.18302 -0.83515 15204 ft 386 kts 226°
2026-04-29 13:35 42.16502 -0.86141 14434 ft 377 kts 226°
2026-04-29 13:35 42.14762 -0.88676 13699 ft 369 kts 226°
2026-04-29 13:35 42.13007 -0.91231 12878 ft 366 kts 226°
2026-04-29 13:35 42.11305 -0.93705 12125 ft 365 kts 226°
2026-04-29 13:36 42.09582 -0.96208 11367 ft 364 kts 226°
2026-04-29 13:36 42.07862 -0.98705 10685 ft 362 kts 226°
2026-04-29 13:36 42.06195 -1.01124 10560 ft 344 kts 226°
2026-04-29 13:36 42.04608 -1.03427 10408 ft 329 kts 226°
2026-04-29 13:37 42.03086 -1.05632 10258 ft 315 kts 226°
2026-04-29 13:37 42.01632 -1.07737 10107 ft 298 kts 226°
2026-04-29 13:37 42.00247 -1.09741 9993 ft 287 kts 226°
2026-04-29 13:37 41.98916 -1.11665 9843 ft 277 kts 226°
2026-04-29 13:38 41.97585 -1.13587 9215 ft 279 kts 226°
2026-04-29 13:38 41.96275 -1.15477 8749 ft 273 kts 225°
2026-04-29 13:38 41.95004 -1.17311 8377 ft 263 kts 225°
2026-04-29 13:38 41.93783 -1.19074 8004 ft 253 kts 224°
2026-04-29 13:39 41.92600 -1.20780 7659 ft 245 kts 224°
2026-04-29 13:39 41.91456 -1.22428 7313 ft 238 kts 224°
2026-04-29 13:39 41.90341 -1.24031 6967 ft 231 kts 224°
2026-04-29 13:39 41.89258 -1.25590 6669 ft 226 kts 224°
2026-04-29 13:40 41.88218 -1.27094 6347 ft 220 kts 223°
2026-04-29 13:40 41.87173 -1.28597 6039 ft 214 kts 224°
2026-04-29 13:40 41.86195 -1.29999 5749 ft 203 kts 222°
2026-04-29 13:40 41.85248 -1.31356 5432 ft 195 kts 222°
2026-04-29 13:41 41.84351 -1.32643 5267 ft 180 kts 223°
2026-04-29 13:41 41.83536 -1.33801 5160 ft 162 kts 216°
2026-04-29 13:41 41.82577 -1.34494 5101 ft 156 kts 196°
2026-04-29 13:41 41.81516 -1.34790 5021 ft 157 kts 179°
2026-04-29 13:42 41.80405 -1.34597 4880 ft 166 kts 162°
2026-04-29 13:42 41.79368 -1.33941 4724 ft 164 kts 147°
2026-04-29 13:42 41.78571 -1.32883 4529 ft 161 kts 126°
2026-04-29 13:42 41.78009 -1.31618 4339 ft 156 kts 123°
2026-04-29 13:43 41.77465 -1.30387 4185 ft 152 kts 124°
2026-04-29 13:43 41.76934 -1.29179 4067 ft 150 kts 123°
2026-04-29 13:43 41.76398 -1.27952 3918 ft 156 kts 122°
2026-04-29 13:43 41.75845 -1.26680 3765 ft 159 kts 121°
2026-04-29 13:44 41.75294 -1.25408 3559 ft 156 kts 121°
2026-04-29 13:44 41.74754 -1.24164 3420 ft 153 kts 120°
2026-04-29 13:44 41.74224 -1.22941 3251 ft 151 kts 119°
2026-04-29 13:44 41.73700 -1.21731 3118 ft 151 kts 120°
2026-04-29 13:45 41.73167 -1.20506 2961 ft 153 kts 119°
2026-04-29 13:45 41.72636 -1.19241 2755 ft 157 kts 118°
2026-04-29 13:45 41.72114 -1.17988 2520 ft 151 kts 118°
2026-04-29 13:45 41.71614 -1.16787 2353 ft 143 kts 118°
2026-04-29 13:46 41.71158 -1.15697 2077 ft 135 kts 117°
2026-04-29 13:46 41.70690 -1.14574 1553 ft 143 kts 117°
2026-04-29 13:46 41.70220 -1.13407 1509 ft 145 kts 116°
2026-04-29 13:46 41.69741 -1.12137 2066 ft 154 kts 120°
2026-04-29 13:47 41.69265 -1.10926 2806 ft 150 kts 118°
2026-04-29 13:47 41.68742 -1.09587 3306 ft 168 kts 115°
2026-04-29 13:47 41.68182 -1.08072 3751 ft 196 kts 120°
2026-04-29 13:47 41.67479 -1.06404 4429 ft 217 kts 122°
2026-04-29 13:48 41.66671 -1.04531 4908 ft 247 kts 121°
2026-04-29 13:48 41.65799 -1.02479 4966 ft 254 kts 121°